Weather reports worldwide

Advertisment
Achnagart, United Kingdom (99191): temperature & dewpoint: 20.05.2019 01:00:00 - 26.05.2019 01:00:00 (BST)Achnagart, United Kingdom (99191): precipitation: 20.05.2019 01:00:00 - 26.05.2019 01:00:00 (BST)
Date & Time tt [°C] td [°C] rr [mm]
26.05.2019 01:00:00 - - -
26.05.2019 00:00:00 10,5 10,0 2,0
25.05.2019 23:00:00 10,2 9,8 2,0
25.05.2019 22:00:00 10,4 9,9 1,2
25.05.2019 21:00:00 10,5 9,8 1,0
25.05.2019 20:00:00 10,6 9,9 1,8
25.05.2019 19:00:00 10,7 9,9 2,0
25.05.2019 18:00:00 10,7 9,9 0,6
25.05.2019 17:00:00 10,9 10,0 0,6
25.05.2019 16:00:00 10,8 9,6 0,6
25.05.2019 15:00:00 11,0 9,5 0,6
25.05.2019 14:00:00 10,6 8,9 0,2
25.05.2019 13:00:00 10,6 7,2 0,6
25.05.2019 12:00:00 10,1 7,5 0,6
25.05.2019 11:00:00 10,3 6,7 0,2
25.05.2019 10:00:00 10,7 5,5 0,0
25.05.2019 09:00:00 10,3 5,1 0,0
25.05.2019 08:00:00 9,6 5,4 0,0
25.05.2019 07:00:00 9,1 6,1 0,0
25.05.2019 06:00:00 8,0 6,1 0,0
25.05.2019 05:00:00 7,7 6,0 0,0
25.05.2019 04:00:00 7,5 5,7 0,0
25.05.2019 03:00:00 7,6 5,6 0,0
25.05.2019 02:00:00 8,1 5,8 0,0
25.05.2019 01:00:00 8,5 5,7 0,0
25.05.2019 00:00:00 8,0 5,9 0,0
24.05.2019 23:00:00 8,1 6,1 0,0
24.05.2019 22:00:00 7,8 4,5 0,0
24.05.2019 21:00:00 10,6 5,6 0,0
24.05.2019 20:00:00 11,6 5,1 0,0
24.05.2019 19:00:00 11,9 5,0 0,0
24.05.2019 18:00:00 12,7 4,8 0,0
24.05.2019 17:00:00 13,4 5,8 0,0
24.05.2019 16:00:00 12,7 6,2 0,0
24.05.2019 15:00:00 11,3 5,9 0,0
24.05.2019 14:00:00 11,0 6,1 0,0
24.05.2019 13:00:00 11,0 6,2 0,0
24.05.2019 12:00:00 10,7 6,2 0,0
24.05.2019 11:00:00 9,8 5,7 0,0
24.05.2019 10:00:00 8,9 6,9 0,0
24.05.2019 09:00:00 8,7 6,2 0,0
24.05.2019 08:00:00 8,6 6,3 0,0
24.05.2019 07:00:00 8,6 5,8 0,0
24.05.2019 06:00:00 7,8 6,4 0,0
24.05.2019 05:00:00 7,8 6,0 0,0
24.05.2019 04:00:00 7,7 6,3 0,0
24.05.2019 03:00:00 8,6 5,3 0,0
24.05.2019 02:00:00 8,7 5,3 0,0
24.05.2019 01:00:00 8,6 5,7 0,0
24.05.2019 00:00:00 8,9 5,8 0,0
23.05.2019 23:00:00 8,9 6,1 0,0
23.05.2019 22:00:00 9,4 5,6 0,0
23.05.2019 21:00:00 9,5 6,1 0,0
23.05.2019 20:00:00 9,9 6,2 0,0
23.05.2019 19:00:00 10,6 6,4 0,0
23.05.2019 18:00:00 10,1 7,8 0,0
23.05.2019 17:00:00 10,3 7,2 0,0
23.05.2019 16:00:00 10,2 7,3 0,0
23.05.2019 15:00:00 10,2 7,6 0,0
23.05.2019 14:00:00 10,0 7,9 0,0
23.05.2019 13:00:00 9,9 8,7 0,0
23.05.2019 12:00:00 9,5 8,3 0,2
23.05.2019 11:00:00 9,4 8,6 0,2
23.05.2019 10:00:00 9,0 8,3 0,8
23.05.2019 09:00:00 9,2 8,2 0,0
23.05.2019 08:00:00 9,2 8,1 0,2
23.05.2019 07:00:00 9,2 7,9 0,0
23.05.2019 06:00:00 9,6 7,5 0,0
23.05.2019 05:00:00 9,2 7,7 0,0
23.05.2019 04:00:00 9,2 7,8 0,0
23.05.2019 03:00:00 9,4 7,8 0,2
23.05.2019 02:00:00 9,3 7,9 0,2
23.05.2019 01:00:00 9,1 8,2 0,0
23.05.2019 00:00:00 9,4 7,9 0,0
22.05.2019 23:00:00 9,4 8,6 0,2
22.05.2019 22:00:00 9,6 8,7 0,8
22.05.2019 21:00:00 10,0 8,3 0,2
22.05.2019 20:00:00 10,4 8,1 0,0
22.05.2019 19:00:00 10,3 8,1 0,0
22.05.2019 18:00:00 10,2 8,2 0,0
22.05.2019 17:00:00 10,6 8,3 0,0
22.05.2019 16:00:00 10,5 8,4 0,0
22.05.2019 15:00:00 10,1 9,3 1,2
22.05.2019 14:00:00 10,7 8,2 0,0
22.05.2019 13:00:00 11,0 7,9 0,0
22.05.2019 12:00:00 10,7 8,1 0,0
22.05.2019 11:00:00 10,0 8,4 0,0
22.05.2019 10:00:00 9,6 7,9 0,0
22.05.2019 09:00:00 8,9 7,1 0,6
22.05.2019 08:00:00 8,5 7,2 0,4
22.05.2019 07:00:00 8,4 6,7 0,4
22.05.2019 06:00:00 8,9 6,3 0,0
22.05.2019 05:00:00 8,6 6,0 0,0
22.05.2019 04:00:00 8,0 6,4 0,2
22.05.2019 03:00:00 8,5 6,0 0,0
22.05.2019 02:00:00 7,5 5,8 0,0
22.05.2019 01:00:00 6,5 5,1 0,0
22.05.2019 00:00:00 6,7 4,2 0,0
21.05.2019 23:00:00 9,5 5,1 0,0
21.05.2019 22:00:00 10,0 5,0 0,0
21.05.2019 21:00:00 10,8 4,4 0,0
21.05.2019 20:00:00 11,7 5,1 0,0
21.05.2019 19:00:00 12,1 5,3 0,0
21.05.2019 18:00:00 14,1 5,3 0,0
21.05.2019 17:00:00 13,6 6,0 0,0
21.05.2019 16:00:00 11,7 4,8 0,0
21.05.2019 15:00:00 12,3 5,2 0,0
21.05.2019 14:00:00 13,1 4,3 0,0
21.05.2019 13:00:00 13,4 3,8 0,0
21.05.2019 12:00:00 11,9 6,3 0,0
21.05.2019 11:00:00 13,7 7,2 0,0
21.05.2019 10:00:00 11,4 7,1 0,0
21.05.2019 09:00:00 9,5 8,4 0,0
21.05.2019 08:00:00 7,5 6,7 0,0
21.05.2019 07:00:00 7,7 6,7 0,0
21.05.2019 06:00:00 7,4 6,6 0,0
21.05.2019 05:00:00 7,0 6,1 0,0
21.05.2019 04:00:00 7,7 6,8 0,0
21.05.2019 03:00:00 8,0 7,4 0,0
21.05.2019 02:00:00 7,9 7,4 0,0
21.05.2019 01:00:00 7,6 7,1 0,0
21.05.2019 00:00:00 7,2 6,6 0,0
20.05.2019 23:00:00 7,1 5,4 0,0
20.05.2019 22:00:00 9,8 6,7 0,0
20.05.2019 21:00:00 12,0 7,9 0,0
20.05.2019 20:00:00 12,5 7,7 0,0
20.05.2019 19:00:00 13,0 8,9 0,0
20.05.2019 18:00:00 12,5 8,8 0,0
20.05.2019 17:00:00 12,1 8,9 0,4
20.05.2019 16:00:00 12,4 9,0 0,0
20.05.2019 15:00:00 13,0 9,0 0,2
20.05.2019 14:00:00 12,5 8,9 0,0
20.05.2019 13:00:00 12,3 9,6 0,0
20.05.2019 12:00:00 12,6 9,8 0,0
20.05.2019 11:00:00 12,1 10,0 0,0
20.05.2019 10:00:00 11,2 10,3 0,2
20.05.2019 09:00:00 10,0 9,8 1,2
20.05.2019 08:00:00 9,8 9,5 0,6
20.05.2019 07:00:00 9,5 9,3 2,8
20.05.2019 06:00:00 9,7 9,6 0,2
20.05.2019 05:00:00 9,4 9,2 0,4
20.05.2019 04:00:00 9,7 9,5 0,0
20.05.2019 03:00:00 9,7 9,4 0,0
20.05.2019 02:00:00 9,9 9,5 0,0
20.05.2019 01:00:00 10,2 9,7 0,0

tt = temperature
td = dewpoint
rr = precipitation

Next stations